COSMOS 1244

Satellite information

Favourite Embed

Satellite Type and Status

PAYLOADIN ORBIT

Key statistics

Satellite COSMOS 1244 at a glance.

Uptime

16216

Days in orbit

Revolutions

≈ 13.8

Per day

Orbit

LEO

Low Earth Orbit

Inclination

83.0

Latest

Satellite identification and parameters

Extended collection of information and parameters for COSMOS 1244.

Object identification

Identified? True

Debris? False

Object name: COSMOS 1244

International designator: 1981-013A

Object number (NORAD): 12297

Object ID (CCSDS): 12297

Country: COMMONWEALTH OF INDEPENDENT STATES (CIS)

Current information (Y/N): Y

RCS size: LARGE

Orbital parameters

Period: 104.711 minutes

Inclination: 82.9534 deg

SMA: 7359.064 km

Apoapsis: 1004.301 km

Periapsis: 957.556 km

RAAN: 341.4304 deg

Eccentricy: 0.003176

Argument of periapsis: 76.5339 deg

Mean anomaly: 357.2291 deg

Mean motion: 13.752097 rev/day

Mean motion (dot): 0.0000003 rev/day2

B* drag term: 0.000015354 1/REarth

Two-line elements (TLE)

Creation date: July 6, 2025, 6:05 p.m.

Reference frame: TEME

Reference center: EARTH

Epoch: July 6, 2025, 1:36 p.m. UTC

TLE line 0: 0 COSMOS 1244

TLE line 1: 1 12297U 81013A 25187.56687648 .00000030 00000-0 15354-4 0 9992

TLE line 2: 2 12297 82.9534 341.4304 0031760 76.5339 357.2291 13.75209700871765

Live tracking on map

Real-time ground track for satellite COSMOS 1244.

In-orbit conjunctions

A list of the most updated potential collisions computed for object COSMOS 1244.

Target Orbit TCA Probability of collision Miss distance Type
NIMBUS 2 DEB SSO 2025-04-21 21:41:52 0.0002855703 189.0 (m) DEBRIS
DELTA 1 DEB MEO 2025-03-07 04:14:33 0.0002457857 371.0 (m) DEBRIS
FENGYUN 1C DEB SSO 2024-11-07 14:27:27 0.001594344 123.0 (m) DEBRIS

Associated space launch

Navigation satellite providing location information for the Tsiklon-B navigation system

COSMOS 1244 was lifted into orbit during the mission ‘Kosmos-3M | Parus 26’, on board a Kosmos-3M space rocket.

The launch took place on Feb. 12, 1981, 6:21 p.m. from 132/1 (132L).

For more information about the launch, click the button.

Launch to space Kosmos-3M | Parus 26
Kosmos-3M | Parus 26

Agency: N/A

Status: Launch Successful

Launch date: Feb. 12, 1981, 6:21 p.m. UTC

Rocket: Kosmos-3M

Launch pad: 132/1 (132L)

Location: Plesetsk Cosmodrome, Russian Federation

...

Latest news about this satellite

There are no fresh news available about this satellite. Check back as we update our databases every day.


Newsletter sign-up

Weekly statistics, charts and insights to help you stay on top of the space industry.